W1EUM Weather Reports


time (UTC)temp
C
wind
direction
speed
KPH
gust
KPH
rain 1hr
cm
rain 24hr
cm
rain mn
cm
humidity
%
barometer
mb
20260505011608 8 134 0.0 0.0 0.00 0.00 0.00 61 1006.8
20260505010053 8 177 0.0 0.0 0.00 0.00 0.00 68 1006.7
20260505004559 8 175 0.0 0.0 0.00 0.00 0.00 71 1006.6
20260505003054 9 169 0.0 0.0 0.00 0.00 0.00 74 1006.3
20260505001605 9 117 0.0 0.0 0.00 0.00 0.00 75 1006.0
20260505000105 9 166 0.0 0.0 0.00 0.00 0.00 75 1006.1
20260504234552 10 169 0.0 0.0 0.00 0.00 0.00 75 1005.9
20260504233103 10 143 0.0 0.0 0.00 0.00 0.00 74 1005.7
20260504231548 10 214 0.0 0.0 0.00 0.00 0.00 75 1005.6
20260504230047 11 122 0.0 0.0 0.00 0.00 0.00 74 1005.4
20260504224546 10 184 0.0 0.0 0.00 0.00 0.00 75 1005.4
20260504223047 10 178 0.0 0.0 0.00 0.00 0.00 75 1005.2
20260504221544 10 233 0.0 0.0 0.00 0.00 0.00 74 1005.1
20260504220043 10 188 0.0 0.0 0.00 0.00 0.00 75 1005.1
20260504214542 11 217 0.0 0.0 0.00 0.00 0.00 73 1005.1
20260504213042 11 223 0.0 0.0 0.00 0.00 0.00 74 1004.9
20260504211541 13 179 0.0 0.0 0.00 0.00 0.00 66 1004.9
20260504210040 16 198 0.0 0.0 0.00 0.00 0.00 58 1004.9
20260504204540 17 243 0.0 0.0 0.00 0.00 0.00 52 1004.9
20260504203036 16 27 0.0 0.0 0.00 0.00 0.00 53 1004.9
20260504201534 16 330 0.0 0.0 0.00 0.00 0.00 54 1005.0
20260504200031 15 162 0.0 0.0 0.00 0.00 0.00 58 1004.9
20260504194531 14 221 0.0 0.0 0.00 0.00 0.00 59 1005.1
20260504193026 13 229 0.0 0.0 0.00 0.00 0.00 60 1005.1
20260504191526 14 176 0.0 0.0 0.00 0.00 0.00 59 1005.3
20260504190026 13 255 0.0 0.0 0.00 0.00 0.00 60 1005.5
20260504184525 13 227 0.0 0.0 0.00 0.00 0.00 60 1005.5
20260504183023 12 169 0.0 0.0 0.00 0.00 0.00 65 1005.4
20260504181522 12 166 0.0 0.0 0.00 0.00 0.00 69 1005.3
20260504180021 12 238 0.0 0.0 0.00 0.00 0.00 67 1005.5
20260504174520 11 212 0.0 0.0 0.00 0.03 0.00 70 1005.2
20260504173021 13 215 0.0 0.0 0.00 0.03 0.00 57 1004.9
20260504171525 13 224 0.0 0.0 0.00 0.03 0.00 58 1004.9
20260504081534 -17 0.0 0.0 0.00 0.41 0.00 1007.5
20260504050004 5 250 0.0 0.0 0.00 0.41 0.00 74 1007.2
20260504044506 5 227 0.0 0.0 0.00 0.41 0.00 71 1007.2
20260504043005 5 234 0.0 0.0 0.00 0.41 0.00 72 1007.2
20260504041501 5 244 0.0 0.0 0.00 0.41 0.00 73 1007.2
20260504040112 6 266 0.0 0.0 0.00 0.41 0.00 71 1007.1
20260504034604 6 222 0.0 0.0 0.00 0.41 0.41 64 1007.0
20260504033052 6 219 0.0 0.0 0.00 0.41 0.41 63 1006.9
20260504031549 6 270 0.0 0.0 0.00 0.41 0.41 62 1006.8
20260504030048 6 246 0.0 0.0 0.00 0.41 0.41 62 1006.7
20260504024548 7 272 0.0 0.0 0.00 0.41 0.41 61 1006.7
20260504023048 7 239 0.0 0.0 0.00 0.41 0.41 60 1006.6
20260504021549 7 281 0.0 0.0 0.00 0.41 0.41 59 1006.4
20260504020042 7 356 0.0 0.0 0.00 0.41 0.41 57 1006.4
20260504014541 7 314 0.0 0.0 0.00 0.41 0.41 55 1006.3
20260504013038 7 323 0.0 0.0 0.00 0.41 0.41 55 1006.2